Home   Weather   Amberg   Past weeks

Flag for Germany Past Weather in Amberg, Bavaria, Germany — Yesterday and Last 2 Weeks

Now
70 °F

Scattered clouds.


Feels Like: 70 °F
Forecast: 47 / 67 °F
Wind: 2 mph from North

Location: Hohenfels

Current Time: Sep 26, 2016 at 5:41:51 PM

Latest Report: Sep 26, 2016 at 4:58 PM


Visibility: N/A

Pressure: 30.15 "Hg

Humidity: 57%

Dew Point: 54 °F

Location of AmbergLocation

Past Weather in Amberg — Graph

°F

Amberg Temperature Yesterday

Maximum temperature yesterday: 70 °F (at 3:58 PM)
Minimum temperature yesterday: 39 °F (at 6:58 AM)
Average temperature yesterday: 53 °F

High & Low Weather Summary for the Past Weeks

 TemperatureHumidityPressure
High86 °F (Sep 13, 3:58 PM)100% (Sep 12, 3:58 AM)30.40 "Hg (Sep 12, 3:58 AM)
Low39 °F (Sep 22, 5:58 AM)33% (Sep 12, 4:58 PM)29.84 "Hg (Sep 15, 3:58 PM)
Average59 °F80%30.05 "Hg
* Reported Sep 11 3:58 PM — Sep 26 3:58 PM, Amberg, Weather by CustomWeather, © 2016

Note: Actual official high and low records may vary slightly from our data, if they occured in-between our weather recording intervals... More about our weather records

Advertising

Amberg Weather History for the Previous 24 Hours

Scroll right to see more
 ConditionsComfort  
Time TempWeatherWind HumidityBarometerVisibility
3:58 PM
Mon, Sep 26
70 °FScattered clouds.5 mph53%30.15 "HgN/A
2:58 PM70 °FSunny.No wind53%30.16 "HgN/A
1:58 PM70 °FSunny.2 mph57%30.17 "HgN/A
12:58 PM66 °FSunny.2 mph64%30.19 "HgN/A
11:58 AM64 °FSunny.2 mph68%30.19 "HgN/A
10:58 AM59 °FSunny.3 mph82%30.19 "HgN/A
9:58 AM54 °FSunny.2 mph94%30.19 "HgN/A
8:58 AM48 °FSunny.1 mph94%30.20 "HgN/A
7:58 AM43 °FSunny.2 mph100%30.19 "HgN/A
6:58 AM43 °FClear.1 mph100%30.18 "HgN/A
5:58 AM43 °FClear.1 mph100%30.17 "HgN/A
4:58 AM43 °FClear.2 mph100%30.17 "HgN/A
3:58 AM43 °FClear.No wind100%30.16 "HgN/A
2:58 AM45 °FClear.2 mph100%30.16 "HgN/A
1:58 AM46 °FClear.No wind93%30.16 "HgN/A
12:58 AM48 °FClear.2 mph94%30.16 "HgN/A
11:58 PM
Sun, Sep 25
48 °FClear.2 mph94%30.16 "HgN/A
10:58 PM50 °FClear.3 mph94%30.16 "HgN/A
9:58 PM52 °FClear.2 mph94%30.16 "HgN/A
8:58 PM52 °FClear.3 mph94%30.18 "HgN/A
7:58 PM55 °FClear.6 mph88%30.17 "HgN/A
6:58 PM59 °FSunny.5 mph82%30.16 "HgN/A
5:58 PM66 °FSunny.No wind64%30.14 "HgN/A
Weather by CustomWeather, © 2016

See weather overviewHow to use our weather pages